Other Public Products
Issued by NWS Charleston, SC

Current Version | Previous Version | Text Only | Print | Product List | Glossary Off
Versions: 1 2 3 4 5 6 7 8 9 10 11 12 13 14 15 16 17 18 19 20 21 22 23 24 25 26 27 28 29 30 31 32 33 34 35 36 37 38 39 40 41 42 43 44 45 46 47 48 49 50

907
FPUS82 KCHS 230427
OPUCHS

TEST...KCHS/KSAV Gateway Observations...TEST
National Weather Service Charleston SC
1200 AM EDT SUN APR 23 2017

NOTE: "fair" indicates few or no clouds below 12,000 feet with no
significant weather and/or obstructions to visibility.

SCZ050-WAZ558-NCZ071-TXZ119-213-PAZ071-DCZ001-FLZ074-172-MI076-
NYZ176-178-MAZ016-IL014-TNZ027-NJZ106-GAZ044-MD014-230500-

...Gateway Observations for Charleston International...

CITY           SKY/WX    TMP DP  RH WIND       PRES   REMARKS
Chas Airport   CLEAR     70  66  87 S7        29.91S
Seattle        MOCLDY    51  49  92 S8        29.96R
Charlotte      MOCLDY    65  59  81 N15G22    29.94R
Dallas DFW     PTCLDY    56  45  66 N12       30.16R
Dallas Love    PTCLDY    56  43  61 N8        30.16R
Philladelphia  MOCLDY    50  39  66 N8        30.04R
Wash National  MOCLDY    52  49  89 NW6       30.05S
Baltimore      MOCLDY    48  48 100 N5        30.03R
Miami          CLOUDY    77  70  79 SE10      29.89F
Detroit        PTCLDY    48  30  49 CALM      30.16R
Newark         CLOUDY    52  37  56 N12       30.01R
Laguardia      MOCLDY    53  38  56 N7        30.00R
J F K          CLOUDY    53  41  63 N12       30.01R
Boston Logan   CLOUDY    43  41  93 N5        29.98S
Ft. Lauderdale MOCLDY    76  70  82 SE16      29.89F
Chicago O`Hare CLEAR     48  23  37 CALM      30.16S
Chicago Midway CLEAR     49  24  37 N3        30.16S
Houston Bush   MOCLDY    61  48  62 N20       30.07R
Houston Hobby  MOCLDY    62  48  60 N22G30    30.06R
Nashville      CLOUDY    53  49  86 NE12      29.91F
Atlanta        CLOUDY    72  59  63 N15       29.87S

$$

GAZ044-118-TXZ119-213-NCZ071-DCZ001-MDZ014-506-PAZ021-071-NJZ106-
NYZ176-178-MAZ106-OHZ011-021-055-MIZ076-KYZ091-ILZ014-INZ047-
MNZ060-ONZ431-230500-

...Gateway Observations for Savannah International...

CITY           SKY/WX    TMP DP  RH WIND       PRES   REMARKS
Savannah Arpt  CLEAR     72  65  78 S9        29.91S
Atlanta        CLOUDY    72  59  63 N15       29.87S
Charlotte      MOCLDY    65  59  81 N15G22    29.94R
Dallas DFW     PTCLDY    56  45  66 N12       30.16R
Houston Bush   MOCLDY    61  48  62 N20       30.07R
Wash National  MOCLDY    52  49  89 NW6       30.05S
Wash Dulles    CLOUDY    48  46  93 NW3       30.05S
Baltimore      MOCLDY    48  48 100 N5        30.03R
Philadelphia   MOCLDY    50  39  66 N8        30.04R
Newark         CLOUDY    52  37  56 N12       30.01R
Laguardia      MOCLDY    53  38  56 N7        30.00R
J F K          CLOUDY    53  41  63 N12       30.01R
Boston         CLOUDY    43  41  93 N5        29.98S
Pittsburg      PTCLDY    47  32  56 N9        30.08R
Akron          PTCLDY    42  33  70 N6        30.11R
Cleveland      MOCLDY    44  36  73 CALM      30.15S
Cincinnati     CLEAR     48  35  60 NE15      30.06S
Columbus       CLEAR     44  34  69 NE6       30.08S
Detroit        PTCLDY    48  30  49 CALM      30.16R
Chicago O`Hare CLEAR     48  23  37 CALM      30.16S
Minneapolis    CLEAR     57  38  48 CALM      30.10S
Indianapolis   MOCLDY    50  31  48 E12       30.09S
Toronto Canada CLEAR     43  27  52 NW6       30.10S

$$




USA.gov is the U.S. government's official web portal to all federal, state and local government web resources and services.